Wetbulb
52.79 53.08 53.12 53.30 53.55 53.71 53.84 53.88 54.06 54.18 54.37 54.82 55.16 55.07 55.05 55.19 54.80 56.13 63.31 64.16 61.20 60.34 60.96 60.92 61.54 61.61 61.44 60.72 59.11 62.01 60.44 60.33 59.84 58.87 58.03 57.88 57.37 58.67 58.27 59.75 58.45 57.27 55.86 55.26 56.23 53.65 51.61 61.37 60.92 56.78 60.25 62.30 61.83 61.64
52.46 52.75 52.98 53.16 53.35 53.49 53.51 53.76 53.72 53.80 54.16 54.55 54.84 55.04 54.88 54.78 54.59 54.23 62.62 63.95 63.40 59.59 59.49 62.32 60.62 62.22 62.54 62.48 61.16 62.22 60.76 61.86 62.11 59.71 59.42 59.55 57.31 58.69 58.54 54.38 60.52 55.73 58.70 57.19 58.20 56.18 62.33 62.25 61.46 62.55 62.76 62.01 61.87 61.71
52.13 52.34 52.54 52.94 53.05 53.21 53.39 53.55 53.68 53.67 54.04 54.31 54.59 54.43 54.33 54.53 54.23 53.78 61.65 62.18 62.77 59.58 59.35 59.33 58.51 61.45 62.16 62.40 63.07 58.04 60.36 61.32 62.10 62.68 59.43 58.29 57.16 58.42 54.21 55.06 56.79 58.27 62.35 58.42 58.46 60.11 61.51 61.70 62.20 63.89 63.75 62.92 63.31 63.90
52.00 52.11 52.36 52.74 52.90 53.04 53.19 53.37 53.49 53.53 53.78 54.04 54.14 54.29 54.12 54.13 53.90 52.68 62.21 62.43 61.79 59.86 56.08 58.71 61.48 60.53 63.38 62.24 61.58 61.69 60.33 62.06 61.70 61.98 58.11 56.74 55.34 58.49 55.62 56.18 56.80 58.44 59.23 57.84 57.66 59.64 61.36 60.26 62.88 63.95 64.12 64.87 64.88 65.37
51.87 52.20 52.33 52.50 52.64 52.80 52.96 53.04 53.15 53.29 53.67 53.71 53.59 53.78 53.47 53.56 53.48 56.01 63.65 64.29 62.85 58.53 56.59 57.68 59.52 62.10 63.79 63.05 62.50 62.48 60.07 59.01 59.53 58.05 57.03 55.45 57.95 57.80 58.04 56.24 54.51 57.86 57.21 55.61 54.71 60.84 61.09 61.04 63.40 64.49 64.25 64.74 65.31 65.04
51.96 51.96 52.14 52.23 52.43 52.57 52.76 52.84 52.82 53.00 53.27 53.12 52.93 53.07 52.95 53.74 52.18 61.88 60.94 64.71 62.62 61.26 57.82 53.38 60.57 61.46 62.61 62.15 61.47 61.49 60.66 60.85 60.67 59.06 58.33 60.33 60.00 58.88 53.87 53.56 59.77 60.41 60.15 59.79 59.39 62.44 63.03 63.34 64.02 65.11 64.93 65.07 65.43 64.89
51.71 51.64 51.79 52.16 52.18 52.39 52.47 52.47 52.45 52.52 52.64 52.40 52.26 52.28 52.78 53.20 58.40 59.96 58.80 59.04 55.92 61.83 58.85 54.99 55.06 61.31 62.19 61.91 61.27 60.16 60.40 60.06 60.16 59.59 58.84 58.49 59.42 58.96 55.61 53.22 60.41 61.66 62.74 63.09 63.42 63.89 62.04 63.52 62.51 64.96 65.20 65.30 64.66 65.38
51.73 51.61 51.67 51.88 52.09 52.17 52.25 52.23 52.19 52.21 52.28 51.94 51.95 52.15 53.55 52.85 52.72 58.34 61.29 57.51 56.96 60.28 59.23 55.37 57.08 58.39 61.91 58.96 58.59 63.67 59.70 60.81 60.62 58.72 61.21 58.76 59.32 59.35 54.68 58.93 62.10 62.58 62.91 63.20 63.44 64.29 63.76 64.28 64.62 63.59 63.99 63.32 62.53 63.19
51.91 51.72 51.82 52.01 52.16 52.18 52.16 52.15 52.05 51.87 51.75 51.43 51.90 52.32 58.35 58.82 61.74 61.27 55.76 55.35 63.20 61.09 57.38 56.46 54.79 55.09 61.60 61.11 62.78 61.40 61.46 57.49 61.32 58.12 57.93 59.82 57.12 54.48 59.82 60.40 61.39 61.91 61.59 61.70 62.63 62.96 63.03 62.45 62.70 62.85 62.87 62.83 62.32 62.46
52.07 52.06 52.06 52.18 52.12 52.08 51.87 52.04 52.06 51.49 50.79 51.48 55.60 59.43 59.53 61.03 55.48 58.20 59.43 60.97 61.37 60.20 57.92 54.45 61.56 58.28 59.77 59.53 58.29 59.89 59.81 56.53 55.10 58.78 60.95 57.37 55.59 62.31 61.83 63.16 62.86 62.33 62.44 62.28 60.09 59.72 60.54 60.30 60.69 61.24 61.69 62.42 62.66 62.74
51.68 51.90 52.12 52.14 51.79 51.79 51.89 52.00 51.76 51.01 53.17 57.68 55.30 56.62 57.95 58.07 59.85 58.34 57.04 56.99 58.98 55.80 56.99 56.52 57.69 58.03 62.05 57.09 57.29 59.89 57.96 58.92 52.36 55.87 55.79 55.07 55.81 60.15 61.77 61.33 62.77 61.74 62.27 62.13 62.30 62.28 62.10 61.45 60.68 60.41 60.75 61.72 62.48 62.84
51.27 51.73 52.06 51.75 51.68 51.61 51.75 51.63 51.50 53.83 53.65 50.30 50.67 53.61 57.49 58.37 56.99 54.04 54.28 56.82 56.13 56.62 59.64 57.58 57.57 60.36 59.88 62.35 58.10 58.22 54.08 55.98 50.58 59.37 55.20 52.55 57.80 60.55 60.85 60.26 61.27 62.45 62.15 61.74 62.11 61.40 61.41 61.24 61.13 60.85 61.13 61.41 62.07 62.87
51.00 51.36 51.67 51.56 51.47 51.34 51.53 51.64 51.62 51.07 51.73 56.10 52.48 54.96 56.79 56.40 46.58 48.38 48.66 52.53 54.84 58.75 59.60 59.30 56.17 58.84 59.62 59.65 58.73 58.11 52.73 52.56 59.09 54.18 52.55 56.45 59.06 60.24 60.18 61.02 60.92 61.50 61.13 61.06 60.85 61.17 61.28 61.06 61.50 61.02 60.77 62.04 62.49 62.81
50.91 51.30 51.25 51.32 51.29 51.39 51.70 51.58 51.36 51.90 53.61 54.01 52.33 42.11 50.67 49.66 51.55 53.54 54.79 57.31 59.82 61.58 59.36 59.41 58.57 57.54 60.13 56.31 58.60 51.57 56.65 56.10 50.13 49.01 51.48 56.84 59.25 59.76 60.04 60.56 60.21 60.24 60.89 60.59 60.88 61.67 61.65 61.72 61.57 62.01 61.44 62.43 62.01 62.25
50.99 51.17 51.22 50.63 51.45 51.15 51.03 50.91 51.15 54.33 55.09 51.91 52.09 43.37 50.55 55.51 57.73 58.99 59.01 59.16 59.96 62.53 59.88 59.25 59.48 58.27 56.24 54.18 55.07 53.55 50.68 48.01 50.81 52.02 55.04 57.58 59.86 60.19 60.06 60.43 60.45 60.69 61.36 61.61 61.86 61.39 61.29 60.37 60.95 61.98 62.61 62.78 62.86 62.09
50.47 50.29 51.78 50.73 49.93 50.75 50.64 52.32 54.68 57.26 55.72 52.65 51.77 49.50 53.28 53.32 54.64 56.07 57.05 58.04 60.49 59.85 61.49 60.03 56.18 53.12 52.38 54.27 50.72 49.26 48.36 48.27 53.05 56.63 57.86 59.33 59.67 60.22 60.70 61.32 61.81 61.34 60.07 61.02 61.62 61.61 61.97 61.85 61.17 62.24 62.99 62.77 62.13 62.68
49.79 49.37 50.15 49.63 50.28 50.31 50.71 53.09 56.55 52.82 52.45 50.43 50.62 53.84 53.53 54.50 55.99 57.08 58.44 59.16 61.86 58.27 54.71 56.68 50.39 50.20 56.24 50.99 49.50 55.85 52.91 55.19 57.12 57.48 58.34 60.05 60.39 60.61 60.74 60.05 61.50 60.77 59.79 59.39 59.45 61.58 61.37 62.11 63.10 61.89 60.20 62.24 63.05 62.60
48.77 51.06 49.89 49.96 51.26 52.34 55.52 54.34 53.71 51.65 48.34 51.49 50.51 53.05 54.46 54.84 56.91 57.65 58.80 60.29 58.41 57.15 58.03 54.28 56.92 51.79 49.79 48.11 50.79 55.69 57.92 59.42 59.29 58.79 59.28 61.03 61.58 61.52 61.80 61.08 61.85 61.71 61.20 61.14 60.90 61.47 61.16 60.95 60.52 60.50 60.84 63.01 62.08 58.79
49.96 50.64 50.73 50.83 50.74 49.46 50.46 51.96 53.79 48.69 50.60 53.37 53.73 54.34 54.17 54.32 56.55 57.78 59.32 59.50 59.81 60.38 58.73 56.55 51.99 51.53 52.27 56.12 55.23 56.64 57.89 58.00 57.37 58.25 59.43 61.94 61.99 62.17 61.51 62.06 61.90 61.67 61.52 61.18 60.56 60.94 58.73 56.77 57.21 57.33 56.55 55.29 52.98 53.25
50.25 50.49 50.67 50.93 50.52 47.14 46.72 49.94 54.66 50.31 49.22 51.67 54.11 52.36 53.07 53.23 55.87 55.91 56.51 57.53 57.63 56.64 54.37 52.84 52.93 55.13 56.44 57.47 58.24 57.97 58.42 59.17 58.75 57.60 57.06 58.53 61.86 61.86 61.29 60.61 60.47 61.74 61.13 61.28 60.24 53.69 56.99 55.20 54.04 53.35 53.60 53.03 52.55 52.44
49.21 50.89 51.71 50.95 49.62 48.42 46.95 48.34 48.48 48.90 49.42 49.39 52.70 53.96 52.33 54.09 52.77 52.79 53.58 57.00 55.32 54.35 53.49 55.81 56.30 57.90 60.27 60.21 60.76 60.91 60.47 61.08 59.12 58.38 59.65 58.59 59.94 61.37 61.02 61.01 60.90 60.30 60.25 58.63 57.39 57.04 54.40 55.45 54.45 53.70 54.49 54.29 54.66 55.12
49.68 49.82 49.60 50.00 47.17 48.18 47.58 50.82 47.89 49.47 49.87 49.63 51.50 52.50 50.90 50.68 51.48 52.57 54.62 52.82 53.48 55.04 56.27 56.14 58.00 58.09 59.08 59.73 61.41 62.67 62.65 61.57 62.11 60.53 53.36 54.73 59.48 61.38 59.35 59.16 58.54 57.46 57.76 58.79 58.84 56.15 55.19 55.80 57.51 58.30 58.42 57.28 53.93 54.76
48.46 48.31 47.49 48.35 45.61 43.66 44.22 51.36 46.87 48.34 44.54 45.91 50.51 48.52 49.83 51.01 53.33 56.23 51.70 53.04 54.32 57.26 57.89 57.83 59.32 61.24 59.71 61.06 61.34 61.35 61.88 61.69 61.78 59.95 61.88 61.93 61.10 62.43 59.53 57.75 58.45 56.76 55.29 54.92 55.87 55.64 56.25 51.95 54.19 55.44 56.15 56.34 55.19 54.61
47.97 45.87 44.48 43.88 45.88 42.29 48.48 46.14 48.72 47.76 46.78 45.78 46.04 44.80 47.54 49.57 53.82 51.98 50.03 52.71 54.66 56.97 57.07 60.14 59.14 58.31 59.60 59.79 58.74 61.07 62.52 62.95 62.91 61.79 61.69 61.10 57.08 56.43 56.56 57.60 58.40 56.98 56.89 56.24 56.47 55.40 55.37 54.65 49.41 54.87 54.14 53.77 53.74 53.08
39.77 39.78 41.79 38.06 46.41 43.73 42.72 43.69 44.41 45.09 42.79 44.40 44.05 45.31 48.56 52.88 49.77 49.72 50.30 54.72 55.96 55.97 57.50 58.89 58.86 59.12 58.24 59.63 60.98 59.20 61.87 62.22 60.90 59.00 59.37 59.14 58.04 58.25 56.53 56.64 56.84 57.07 57.69 55.51 54.96 55.16 54.80 54.47 54.58 55.07 54.00 52.89 52.25 52.72
36.93 42.17 40.39 41.90 44.98 43.06 44.06 41.06 42.57 43.73 44.52 43.38 45.08 48.04 51.32 51.16 46.79 46.90 53.79 57.31 58.35 59.05 58.87 58.58 58.51 59.02 59.22 60.48 59.85 59.61 59.35 61.11 61.72 59.46 60.91 58.93 57.76 55.97 55.25 54.61 54.95 55.20 57.83 57.03 55.83 54.45 53.72 53.91 53.36 53.14 53.40 51.40 45.56 51.61
37.68 41.54 46.65 49.50 47.17 47.30 45.48 46.84 47.77 46.87 43.09 44.04 45.81 48.20 49.25 44.96 45.96 51.49 56.85 59.32 58.90 60.40 59.61 60.17 61.78 60.91 60.39 60.71 61.49 62.13 61.52 59.98 60.82 60.46 63.04 60.96 59.29 57.63 55.15 55.23 55.15 56.50 57.53 57.25 57.12 56.24 54.35 53.75 53.47 53.05 53.32 53.64 53.22 52.50
41.72 44.97 41.27 45.15 45.07 47.96 43.26 43.54 41.97 43.33 45.50 48.55 47.10 44.68 44.12 45.19 45.87 53.48 54.47 59.38 59.51 62.06 62.40 62.52 62.13 61.37 60.76 59.10 58.72 59.93 58.77 57.28 58.82 62.08 61.70 58.29 58.46 56.76 57.59 58.41 58.09 45.96 56.87 56.10 55.70 56.53 55.60 54.74 53.89 53.54 53.14 52.69 52.16 53.06
42.95 46.30 46.28 42.97 44.21 43.48 44.59 45.19 43.51 45.96 47.88 46.43 45.14 45.54 46.38 49.78 52.36 52.94 55.81 59.03 60.47 59.99 58.86 59.75 60.57 60.15 58.26 57.85 57.54 57.18 57.48 57.93 57.09 55.22 53.15 51.54 51.97 52.34 55.22 57.48 57.00 58.02 58.44 56.34 40.91 49.07 53.41 53.29 52.97 53.05 52.95 52.91 53.04 52.56
43.79 48.24 43.92 42.76 42.11 42.22 44.61 48.56 48.15 49.02 51.00 50.63 53.38 51.87 51.47 51.93 53.58 55.27 57.19 59.56 58.47 58.42 58.78 58.17 59.72 59.05 54.86 54.22 54.17 54.52 55.50 56.62 56.57 54.12 54.11 50.74 50.61 53.46 56.25 56.18 57.35 56.72 56.47 55.80 55.50 54.52 44.15 50.99 50.70 52.89 52.29 51.94 50.99 51.02
47.48 46.66 44.02 44.18 43.21 47.08 47.83 50.60 50.61 51.15 52.15 50.84 53.77 49.66 49.30 50.50 53.53 56.33 56.94 58.07 57.21 58.67 55.71 54.19 55.21 55.89 54.16 53.37 53.52 53.83 53.42 56.27 56.75 56.58 56.60 56.09 55.04 54.39 53.94 54.57 56.14 56.54 56.07 55.02 54.51 53.54 52.69 52.72 52.72 51.95 51.03 50.77 50.67 49.35
45.76 44.38 43.85 41.32 44.33 48.56 50.29 48.72 48.45 47.81 48.78 49.56 49.83 52.68 52.02 49.92 48.43 53.57 57.75 57.31 56.50 54.62 49.86 52.50 52.46 52.35 53.66 53.19 52.81 52.10 47.39 53.98 53.71 53.44 53.91 54.44 54.80 55.30 56.07 55.12 54.58 54.10 53.61 52.99 52.74 52.36 52.05 51.39 50.82 50.61 50.47 49.65 49.17 49.44
44.77 44.80 45.53 45.04 45.20 45.81 48.83 48.66 47.12 46.72 48.62 49.59 49.86 49.93 49.65 49.05 47.69 54.35 61.41 60.79 59.45 58.55 55.39 54.32 53.16 53.90 53.98 53.33 53.15 52.63 50.12 51.84 44.50 37.20 38.33 37.61 37.21 43.76 53.08 53.73 53.65 53.31 52.65 52.34 52.18 52.14 51.31 50.96 50.64 50.42 50.23 50.03 49.52 49.29
MSLP
1023.94 1023.51 1023.08 1022.54 1021.95 1021.32 1020.61 1019.91 1019.18 1018.45 1017.76 1017.08 1016.49 1015.85 1015.20 1014.66 1014.12 1013.35 1010.05 1010.05 1009.28 1006.46 1004.33 1004.45 1003.85 1003.46 1002.64 1002.46 1001.61 1001.73 1001.66 1001.14 1000.87 1000.21 999.94 999.39 999.02 998.74 998.62 998.97 999.38 999.70 999.92 999.96 999.96 1000.27 1000.96 1002.25 1001.88 1002.71 1003.74 1004.02 1004.14 1004.08
1024.02 1023.61 1023.12 1022.58 1022.01 1021.39 1020.74 1020.04 1019.30 1018.48 1017.71 1017.07 1016.47 1015.89 1015.28 1014.75 1014.26 1013.93 1010.15 1009.88 1009.88 1008.52 1005.44 1005.65 1005.28 1005.11 1004.94 1004.48 1003.70 1002.27 1002.22 1002.26 1001.47 1001.06 1000.42 1000.27 999.95 999.66 999.46 999.32 1000.12 1000.16 1000.32 1000.99 1001.63 1001.48 1002.84 1003.24 1003.54 1003.95 1004.58 1004.88 1004.80 1004.67
1024.02 1023.61 1023.16 1022.64 1022.04 1021.42 1020.82 1020.18 1019.43 1018.60 1017.88 1017.15 1016.47 1015.94 1015.40 1014.84 1014.36 1014.12 1011.60 1010.58 1009.41 1007.85 1005.59 1004.80 1004.13 1004.60 1005.05 1004.98 1004.78 1004.12 1002.84 1003.07 1003.31 1003.36 1002.40 1001.45 1001.06 1001.14 1000.30 1000.04 1000.24 1000.42 1001.41 1001.90 1002.41 1002.26 1002.88 1003.90 1004.02 1004.87 1005.47 1005.44 1005.20 1004.86
1023.99 1023.57 1023.15 1022.66 1022.13 1021.53 1020.82 1020.11 1019.44 1018.76 1018.04 1017.18 1016.35 1015.77 1015.24 1014.73 1014.32 1014.02 1011.43 1011.11 1010.08 1008.52 1006.12 1003.92 1004.85 1004.94 1005.38 1005.05 1005.16 1004.82 1004.36 1004.43 1004.15 1003.98 1002.93 1002.09 1001.63 1001.29 1001.40 1001.08 1001.44 1001.50 1002.67 1002.69 1003.17 1003.44 1003.95 1004.36 1005.14 1005.88 1005.88 1005.72 1005.49 1005.30
1023.84 1023.49 1023.06 1022.58 1022.06 1021.47 1020.86 1020.18 1019.44 1018.64 1017.86 1017.08 1016.34 1015.64 1014.98 1014.50 1014.16 1013.57 1011.58 1011.35 1011.01 1010.37 1007.08 1004.24 1004.48 1004.72 1004.78 1004.83 1005.13 1005.21 1004.78 1004.21 1003.85 1003.51 1003.00 1002.40 1002.12 1002.36 1002.63 1002.47 1002.38 1002.48 1002.83 1003.60 1003.74 1004.74 1005.57 1005.43 1005.75 1006.19 1006.18 1006.06 1005.93 1005.74
1023.60 1023.26 1022.89 1022.45 1021.94 1021.37 1020.70 1020.00 1019.28 1018.49 1017.68 1016.88 1016.05 1015.29 1014.70 1014.16 1014.05 1012.36 1010.90 1011.22 1011.42 1010.92 1008.96 1005.22 1004.38 1004.79 1004.94 1005.02 1005.01 1005.00 1004.56 1004.14 1004.18 1003.43 1003.04 1002.75 1003.24 1004.16 1003.10 1002.45 1003.30 1003.98 1004.85 1005.04 1005.37 1005.88 1006.24 1006.25 1006.20 1006.24 1006.42 1006.39 1006.16 1006.10
1023.37 1023.04 1022.64 1022.26 1021.82 1021.26 1020.62 1019.89 1019.10 1018.26 1017.42 1016.57 1015.87 1015.20 1014.61 1014.20 1013.72 1012.40 1012.41 1012.74 1012.76 1011.55 1008.89 1005.56 1003.88 1004.67 1004.84 1004.74 1004.52 1004.57 1004.45 1004.52 1004.24 1003.64 1003.51 1003.46 1003.36 1004.62 1003.96 1003.34 1003.78 1005.05 1005.79 1006.11 1006.55 1006.66 1006.22 1005.78 1006.04 1006.36 1006.40 1006.10 1005.96 1005.78
1023.09 1022.80 1022.47 1022.07 1021.61 1021.10 1020.52 1019.78 1018.91 1017.94 1016.98 1016.15 1015.54 1014.98 1014.56 1014.30 1014.10 1013.02 1012.58 1012.86 1012.86 1010.65 1008.62 1005.90 1003.82 1004.16 1004.66 1004.07 1004.01 1004.30 1004.22 1004.37 1004.28 1003.96 1003.63 1003.96 1003.91 1004.58 1004.37 1004.22 1005.18 1006.04 1006.57 1006.70 1006.87 1007.01 1006.61 1006.28 1006.16 1006.28 1006.17 1006.22 1006.02 1005.63
1022.74 1022.52 1022.22 1021.88 1021.46 1020.91 1020.32 1019.65 1018.80 1017.69 1016.46 1015.50 1015.03 1014.67 1014.26 1013.82 1011.66 1011.78 1012.82 1012.79 1011.86 1010.91 1007.75 1005.51 1003.65 1003.05 1004.19 1003.68 1003.69 1004.47 1004.08 1003.58 1003.42 1003.80 1003.71 1004.12 1003.99 1004.08 1005.06 1005.80 1006.55 1007.28 1007.41 1007.43 1007.56 1007.37 1007.02 1006.90 1006.80 1006.66 1006.53 1006.26 1005.99 1005.69
1022.32 1022.14 1021.92 1021.63 1021.28 1020.80 1020.22 1019.54 1018.70 1017.42 1015.91 1014.60 1014.39 1013.15 1011.33 1012.01 1012.90 1012.42 1012.28 1010.86 1010.18 1008.88 1008.08 1005.74 1004.24 1003.47 1004.07 1003.59 1003.94 1003.91 1004.12 1003.74 1003.19 1003.18 1004.03 1004.56 1004.50 1005.36 1006.14 1006.82 1007.67 1008.17 1008.23 1008.08 1007.88 1007.68 1007.49 1007.23 1007.18 1007.03 1006.68 1006.33 1006.13 1005.81
1022.01 1021.78 1021.58 1021.35 1021.05 1020.66 1020.19 1019.60 1018.84 1017.48 1015.00 1014.15 1013.91 1012.81 1012.94 1012.56 1012.02 1010.50 1009.22 1008.34 1007.23 1006.71 1005.74 1004.79 1004.36 1003.54 1004.56 1003.88 1003.58 1004.49 1003.78 1003.90 1003.80 1003.52 1004.34 1003.81 1004.44 1006.65 1007.63 1008.03 1008.56 1008.66 1008.75 1008.62 1008.35 1008.06 1007.66 1007.48 1007.34 1007.09 1006.78 1006.49 1006.03 1005.69
1021.66 1021.46 1021.26 1021.05 1020.79 1020.44 1020.03 1019.63 1019.10 1017.68 1017.19 1017.98 1017.80 1016.04 1013.97 1011.64 1010.08 1009.02 1007.58 1006.80 1006.22 1004.68 1005.05 1004.72 1004.54 1004.25 1004.95 1005.38 1004.71 1005.25 1004.70 1004.72 1004.06 1004.68 1004.87 1004.48 1006.87 1007.82 1008.30 1008.64 1008.88 1008.84 1008.59 1008.60 1008.46 1008.20 1008.08 1007.87 1007.70 1007.41 1006.81 1006.36 1006.07 1005.73
1021.23 1021.06 1020.89 1020.71 1020.49 1020.18 1019.80 1019.47 1019.17 1018.75 1017.68 1016.53 1016.61 1013.87 1011.52 1010.06 1009.09 1007.54 1006.06 1005.20 1004.57 1004.96 1005.06 1005.00 1004.94 1004.79 1005.72 1005.55 1005.19 1005.32 1005.06 1004.54 1004.95 1004.85 1004.45 1005.91 1007.75 1008.52 1009.16 1009.14 1009.12 1009.03 1008.79 1008.47 1008.17 1007.96 1007.68 1007.44 1007.26 1007.01 1006.60 1006.22 1005.90 1005.57
1020.78 1020.64 1020.47 1020.30 1020.06 1019.78 1019.45 1019.20 1018.91 1018.19 1017.09 1014.31 1012.84 1012.26 1010.06 1008.21 1006.79 1005.33 1004.84 1004.40 1005.17 1004.84 1004.86 1004.82 1004.76 1005.02 1005.16 1005.42 1005.24 1005.34 1004.88 1005.35 1004.67 1004.36 1004.79 1006.96 1008.40 1009.22 1009.73 1009.66 1009.48 1009.14 1008.89 1008.62 1008.31 1008.01 1007.72 1007.44 1007.01 1006.76 1006.50 1006.08 1005.91 1005.86
1020.38 1020.25 1020.04 1019.72 1019.44 1019.35 1019.12 1018.76 1018.40 1017.58 1015.37 1013.30 1011.92 1010.38 1008.02 1006.74 1006.58 1006.14 1006.03 1006.00 1005.99 1005.57 1005.33 1005.38 1005.40 1005.57 1005.46 1005.82 1005.74 1005.63 1005.51 1005.15 1004.64 1004.82 1006.60 1008.25 1009.17 1009.80 1010.02 1009.90 1009.58 1009.25 1009.11 1009.00 1008.88 1008.60 1008.20 1008.00 1007.66 1006.81 1006.34 1006.02 1005.94 1006.04
1020.10 1019.79 1018.73 1019.04 1019.14 1018.98 1018.59 1017.78 1016.96 1015.75 1014.12 1012.76 1011.32 1009.38 1007.80 1007.30 1006.02 1006.24 1006.00 1005.51 1006.17 1005.77 1005.84 1005.65 1005.59 1005.66 1005.70 1005.64 1005.67 1005.53 1005.24 1004.86 1005.39 1006.16 1007.14 1008.25 1009.30 1010.00 1010.08 1010.04 1009.93 1009.83 1009.88 1009.72 1009.48 1009.02 1008.58 1008.05 1007.63 1006.79 1006.38 1006.57 1006.78 1006.75
1020.00 1019.08 1019.00 1019.05 1018.86 1018.30 1017.81 1017.33 1015.15 1014.32 1012.84 1011.42 1009.57 1008.76 1008.24 1007.39 1006.13 1005.93 1006.36 1005.94 1006.90 1006.17 1005.56 1005.48 1005.72 1005.81 1006.02 1005.75 1005.38 1005.48 1005.50 1005.73 1006.45 1007.30 1008.00 1008.94 1009.62 1010.01 1010.45 1010.47 1009.97 1009.98 1010.04 1009.87 1009.73 1009.11 1008.75 1008.48 1007.87 1007.62 1007.44 1007.30 1007.02 1007.30
1019.29 1018.61 1018.90 1018.90 1018.52 1017.24 1016.08 1016.17 1014.27 1013.07 1011.79 1010.40 1009.21 1008.02 1008.09 1007.76 1007.36 1007.16 1007.16 1007.30 1007.13 1006.32 1005.77 1005.84 1006.10 1006.11 1005.72 1005.36 1005.18 1005.47 1006.34 1006.94 1007.51 1008.06 1008.48 1009.20 1009.75 1010.10 1010.15 1010.06 1009.78 1009.86 1009.71 1009.62 1009.44 1009.25 1008.84 1008.60 1008.44 1008.28 1008.06 1007.77 1008.01 1008.52
1018.62 1018.84 1018.89 1018.82 1018.66 1018.18 1015.94 1014.68 1014.14 1012.22 1010.64 1009.49 1009.25 1008.95 1008.79 1008.26 1007.92 1007.78 1007.77 1007.85 1007.60 1007.10 1006.62 1006.69 1006.40 1005.78 1005.48 1005.51 1006.05 1006.36 1006.96 1007.25 1007.62 1008.28 1008.92 1009.27 1009.84 1010.05 1010.08 1009.92 1009.81 1009.66 1009.70 1009.62 1009.62 1009.51 1009.75 1010.20 1009.86 1009.30 1009.13 1009.02 1009.34 1009.54
1018.81 1018.70 1018.59 1018.67 1018.80 1017.88 1016.20 1014.31 1013.96 1012.50 1010.60 1009.76 1009.58 1009.06 1008.68 1008.21 1007.82 1007.85 1007.75 1007.58 1007.52 1007.45 1006.92 1006.44 1006.07 1005.70 1005.92 1006.29 1007.01 1007.58 1007.85 1008.15 1008.61 1008.66 1009.13 1009.84 1009.92 1010.02 1009.91 1010.04 1009.75 1009.93 1009.49 1009.66 1009.87 1010.14 1010.33 1010.80 1011.02 1010.88 1010.53 1010.34 1009.91 1009.88
1018.59 1017.95 1018.10 1018.21 1017.98 1017.60 1016.45 1014.20 1013.09 1012.37 1011.68 1010.57 1009.44 1008.93 1008.43 1008.09 1008.04 1007.88 1007.65 1007.43 1007.22 1006.68 1006.20 1005.97 1005.90 1006.06 1007.15 1007.81 1008.26 1008.54 1008.45 1009.00 1009.18 1009.36 1009.69 1009.74 1009.98 1009.91 1009.69 1009.45 1009.44 1009.60 1009.93 1009.90 1010.20 1010.36 1010.62 1010.91 1011.12 1011.10 1010.69 1010.34 1010.01 1009.63
1018.02 1018.15 1018.07 1018.00 1017.38 1016.55 1015.57 1014.24 1013.38 1012.77 1011.76 1010.20 1009.50 1009.04 1008.25 1007.56 1007.25 1007.20 1007.32 1007.06 1006.55 1006.29 1006.15 1006.03 1006.34 1007.17 1007.60 1008.40 1008.49 1009.22 1009.50 1009.62 1009.64 1009.76 1010.29 1010.44 1010.04 1009.89 1009.43 1008.96 1008.75 1009.13 1009.73 1009.88 1009.83 1009.88 1010.30 1010.49 1010.34 1010.05 1009.58 1009.07 1009.09 1008.72
1018.29 1018.26 1017.80 1017.23 1016.30 1015.91 1014.64 1013.56 1012.94 1011.96 1011.14 1010.24 1009.22 1008.59 1007.68 1007.32 1006.89 1006.89 1006.81 1006.39 1006.08 1006.18 1006.16 1006.32 1007.05 1007.88 1008.20 1008.55 1008.95 1009.15 1009.50 1009.67 1009.71 1010.13 1010.24 1010.16 1009.97 1009.88 1009.64 1009.41 1009.28 1009.17 1009.47 1009.98 1009.98 1009.97 1010.08 1010.21 1009.74 1009.38 1008.70 1008.31 1008.40 1008.23
1018.17 1017.75 1016.98 1016.34 1015.31 1014.43 1013.42 1012.78 1012.07 1011.34 1010.79 1010.06 1009.25 1008.54 1007.58 1007.48 1007.30 1007.04 1006.26 1005.74 1005.73 1005.90 1006.21 1007.33 1007.78 1008.07 1008.40 1008.88 1008.87 1009.22 1009.66 1009.78 1009.83 1009.74 1009.93 1010.24 1010.25 1010.56 1010.48 1010.07 1009.67 1009.86 1009.84 1009.81 1010.08 1009.88 1009.78 1009.80 1009.63 1009.10 1009.34 1008.92 1008.41 1008.33
1017.84 1017.31 1016.67 1015.66 1014.59 1013.73 1012.72 1011.90 1011.27 1010.90 1010.34 1010.00 1009.59 1008.72 1007.55 1007.73 1007.61 1007.15 1006.39 1006.46 1005.82 1005.93 1006.34 1007.33 1007.54 1007.55 1008.19 1008.59 1009.08 1009.61 1009.85 1009.37 1009.64 1010.23 1010.28 1010.08 1010.70 1011.00 1010.89 1010.46 1009.95 1009.77 1009.41 1009.62 1009.77 1009.54 1009.76 1009.96 1009.66 1009.00 1009.16 1009.46 1009.44 1008.72
1016.78 1015.98 1015.37 1014.14 1013.47 1012.99 1012.07 1011.46 1011.14 1010.64 1010.34 1009.99 1009.43 1008.78 1008.40 1008.29 1007.81 1007.49 1007.59 1007.59 1007.57 1007.64 1007.72 1007.63 1007.90 1008.46 1008.58 1009.01 1009.34 1009.59 1009.70 1009.68 1009.74 1009.94 1010.20 1010.61 1011.07 1011.31 1011.30 1010.94 1010.42 1009.78 1009.13 1009.59 1009.84 1009.96 1010.04 1009.98 1010.14 1009.82 1008.96 1009.18 1009.41 1009.04
1015.80 1014.25 1013.52 1013.12 1012.96 1012.63 1012.24 1011.99 1011.52 1010.91 1010.92 1010.44 1010.42 1009.53 1008.98 1008.67 1008.44 1009.06 1009.00 1008.66 1008.52 1008.23 1007.70 1007.77 1008.53 1008.83 1009.09 1009.23 1009.38 1009.42 1009.46 1009.40 1009.04 1008.92 1009.96 1010.32 1011.13 1011.50 1011.61 1011.46 1010.25 1009.40 1009.32 1009.26 1009.46 1009.61 1009.34 1009.79 1009.93 1009.68 1009.08 1008.92 1008.98 1009.11
1015.15 1013.92 1013.14 1012.93 1012.67 1012.49 1012.33 1012.44 1012.34 1011.59 1011.34 1011.48 1011.28 1010.70 1010.49 1010.48 1010.66 1010.68 1010.25 1009.69 1009.50 1008.98 1008.81 1008.96 1008.96 1009.13 1009.23 1008.95 1009.23 1009.31 1009.09 1008.97 1008.89 1009.44 1010.18 1011.11 1011.60 1011.65 1011.26 1010.46 1010.12 1010.46 1010.47 1010.63 1010.37 1009.62 1009.79 1009.51 1009.38 1009.26 1009.25 1009.10 1009.13 1009.13
1014.14 1013.26 1012.96 1012.63 1012.59 1012.91 1012.35 1012.02 1012.36 1012.18 1012.40 1011.91 1011.48 1011.18 1011.52 1011.83 1011.84 1011.50 1010.47 1010.17 1009.66 1009.56 1009.50 1009.32 1009.13 1008.79 1008.93 1009.22 1009.32 1009.32 1009.07 1008.57 1009.05 1009.64 1010.44 1011.28 1011.72 1011.53 1011.28 1011.18 1011.08 1010.22 1010.14 1010.42 1010.78 1010.67 1010.74 1010.53 1010.44 1010.13 1009.73 1009.36 1009.28 1009.41
1012.98 1012.76 1012.80 1012.58 1012.24 1012.16 1012.45 1012.29 1012.22 1012.18 1011.61 1011.01 1011.04 1011.38 1011.80 1011.86 1011.80 1011.54 1011.13 1010.56 1010.45 1010.28 1009.86 1009.40 1009.36 1009.43 1009.22 1009.44 1009.85 1010.23 1010.04 1009.87 1009.83 1009.82 1009.87 1011.06 1011.53 1011.56 1010.95 1010.84 1010.09 1010.15 1010.16 1009.94 1009.79 1010.28 1010.89 1010.58 1010.37 1010.39 1010.11 1009.89 1010.07 1010.08
1012.66 1012.54 1012.53 1012.20 1011.73 1011.32 1011.57 1011.78 1012.15 1011.38 1010.78 1010.15 1010.21 1010.69 1011.25 1011.86 1011.90 1011.80 1011.70 1011.42 1011.06 1010.66 1010.24 1010.19 1009.75 1009.62 1009.94 1009.80 1009.79 1009.90 1010.16 1010.27 1010.46 1010.44 1010.32 1010.66 1011.14 1011.32 1011.21 1010.99 1010.46 1010.21 1010.09 1010.05 1009.92 1010.10 1010.50 1010.07 1010.01 1010.18 1010.24 1010.38 1010.51 1010.64
1012.32 1011.99 1011.83 1011.56 1010.92 1010.42 1010.25 1010.34 1010.46 1010.23 1009.79 1009.29 1009.47 1010.05 1010.58 1011.56 1011.75 1011.62 1011.64 1011.45 1011.43 1011.01 1011.49 1011.20 1011.41 1011.44 1011.52 1011.64 1011.61 1011.54 1011.31 1011.39 1011.55 1011.74 1011.60 1011.29 1011.12 1010.99 1010.58 1010.49 1010.43 1010.48 1010.33 1010.34 1010.53 1010.91 1011.07 1011.01 1011.08 1011.10 1010.92 1011.09 1011.25 1011.29
1011.92 1011.68 1011.49 1011.17 1010.43 1009.86 1009.33 1009.40 1009.29 1009.27 1008.94 1008.82 1009.04 1009.26 1010.18 1010.96 1011.23 1011.36 1011.17 1011.32 1011.28 1011.03 1011.17 1012.47 1012.96 1013.00 1012.84 1012.44 1012.12 1012.35 1012.61 1013.00 1013.37 1013.31 1013.25 1013.14 1012.87 1012.37 1011.39 1011.28 1011.15 1011.06 1011.06 1011.04 1011.15 1011.29 1011.53 1011.68 1011.61 1011.64 1011.53 1011.51 1011.51 1011.47
Wind_Speed
14 15 16 17 18 19 20 21 22 23 23 23 22 22 20 18 16 9 3 4 6 7 8 5 7 9 5 6 8 7 5 8 7 9 11 12 13 14 15 12 14 14 15 13 13 17 15 13 5 5 8 9 12 14
13 14 16 17 18 19 20 21 22 23 24 23 23 21 20 17 16 11 4 3 4 6 7 5 8 8 6 6 8 4 7 5 7 6 6 6 12 11 15 13 13 9 9 7 10 11 5 6 8 8 8 10 11 12
12 14 15 16 18 19 20 21 22 23 23 23 23 22 19 16 13 9 6 5 5 5 8 10 7 6 7 9 7 6 5 4 4 4 8 8 10 9 12 10 16 10 6 7 11 8 1 5 8 9 10 10 10 10
12 14 15 16 17 18 20 21 22 22 22 23 24 22 19 14 12 8 4 6 5 5 6 6 2 4 2 6 7 9 12 5 8 5 8 8 10 4 8 9 7 7 2 7 8 11 11 5 9 9 9 8 9 9
12 13 14 15 17 18 19 21 22 23 23 24 23 21 18 13 10 8 5 2 3 6 6 4 5 4 7 6 8 9 11 10 5 6 6 7 6 5 6 8 9 6 4 5 7 6 6 11 10 9 8 10 11 11
12 12 13 15 16 18 20 21 22 23 24 24 24 21 16 9 6 7 6 4 6 5 6 6 5 3 2 3 5 8 10 5 5 5 5 3 3 3 7 6 5 6 0 5 5 9 9 10 7 8 8 11 11 13
12 13 14 15 16 18 19 21 23 24 24 24 22 17 12 6 6 5 7 5 6 5 5 5 5 7 4 7 5 6 6 5 5 5 4 7 2 5 7 9 9 6 3 4 5 6 9 5 7 9 10 10 10 13
12 13 14 15 16 17 19 21 23 25 26 25 20 13 9 6 6 5 4 1 5 6 4 5 2 5 8 6 6 3 6 5 5 6 2 5 5 4 6 3 6 4 5 1 3 8 11 12 10 11 12 11 15 16
11 12 13 14 16 17 19 20 23 26 28 26 17 9 5 5 4 6 6 6 6 6 6 4 6 4 6 6 0 4 4 5 4 5 9 3 6 6 7 4 3 5 5 7 7 9 9 10 11 11 13 14 15 15
12 11 12 13 15 16 18 20 23 27 30 26 8 7 5 5 5 8 5 6 7 7 6 6 2 2 5 6 7 3 4 6 4 3 4 5 9 9 6 9 5 5 6 7 7 7 9 10 11 13 14 14 15 15
11 11 11 13 14 15 16 18 21 26 16 5 5 3 7 5 5 5 4 5 5 5 6 6 4 2 3 4 3 1 1 1 4 4 4 5 3 9 6 5 1 4 5 7 7 9 12 12 13 14 15 16 16 16
11 11 11 12 14 14 15 16 15 12 8 9 8 7 6 5 5 5 5 4 5 4 4 6 7 2 5 3 3 4 4 4 5 4 4 4 8 6 3 3 4 7 7 10 11 12 13 14 14 15 16 16 17 17
11 11 10 12 13 14 15 13 12 13 16 5 6 6 3 2 2 7 8 5 4 3 5 5 7 5 4 5 2 2 5 6 3 4 4 7 6 6 4 5 7 9 11 13 15 16 17 16 16 17 17 15 17 16
11 10 11 12 13 15 11 12 13 11 6 5 4 3 6 7 7 4 4 5 6 1 5 5 5 5 2 5 2 4 2 2 5 5 2 7 6 3 5 7 10 12 14 16 16 17 18 19 17 17 16 15 14 13
10 11 12 16 10 8 12 14 16 7 5 5 4 5 7 3 3 2 4 1 4 1 3 2 1 3 4 2 3 2 3 5 4 5 6 7 4 3 7 10 11 12 12 13 15 16 16 15 16 16 14 14 14 12
9 14 9 3 4 11 14 15 9 6 4 5 6 6 5 5 5 5 6 4 4 5 1 2 2 3 4 3 4 6 3 4 5 4 6 3 5 6 8 10 11 10 10 13 14 15 15 14 15 15 13 13 9 9
5 4 4 2 8 15 15 6 4 6 6 5 6 6 6 7 6 4 4 5 1 5 6 3 3 6 1 4 4 2 3 6 6 4 4 4 5 7 8 9 10 9 11 11 12 14 13 15 15 13 10 11 7 9
4 2 3 3 9 11 5 6 4 5 7 7 7 5 4 5 3 3 3 3 5 6 3 2 3 6 4 4 5 4 2 1 1 3 4 7 6 7 7 10 10 10 11 11 12 12 13 13 13 8 9 8 8 8
3 4 5 5 5 5 5 4 4 5 7 4 4 4 5 5 4 4 2 3 5 5 2 3 4 5 6 2 3 2 2 3 4 5 6 4 3 6 7 8 7 8 8 8 9 6 10 14 11 8 8 8 6 5
8 10 11 6 4 2 5 4 3 5 6 1 3 5 5 5 3 5 7 6 6 6 7 4 5 4 2 2 4 4 5 5 4 5 2 3 3 4 5 6 6 7 7 6 9 11 10 9 7 7 6 6 4 3
4 3 3 4 4 4 4 3 5 3 4 5 5 3 5 6 7 7 7 7 7 8 8 7 6 3 7 6 4 4 4 4 3 4 2 4 4 4 4 4 6 2 6 6 5 6 6 6 5 3 4 2 3 4
0 1 1 3 3 4 4 5 3 3 5 4 5 5 5 6 7 7 6 9 9 7 8 5 1 7 6 4 2 1 2 4 2 1 3 3 4 1 3 4 5 7 5 4 3 7 7 5 2 2 2 2 7 5
2 2 2 4 4 4 5 4 5 4 4 3 3 4 5 5 4 5 5 7 7 7 7 5 4 1 3 1 4 4 4 3 1 1 3 2 4 2 2 6 8 5 6 5 4 4 3 3 1 7 6 5 7 6
2 2 3 2 4 4 4 4 4 4 4 5 4 5 4 3 2 5 7 7 8 9 8 7 5 6 6 4 5 3 3 3 2 2 2 2 2 3 4 3 3 3 3 5 2 2 3 2 5 6 9 10 9 8
1 2 3 5 5 4 5 4 4 4 4 4 6 6 3 4 6 5 3 3 4 5 5 7 8 6 5 2 2 3 4 0 1 1 2 4 3 2 4 6 6 6 3 4 3 4 9 7 10 6 6 7 11 12
4 5 4 4 2 5 4 3 5 6 4 4 5 3 1 3 5 2 1 2 5 4 5 6 4 4 2 2 3 4 3 4 3 2 2 3 4 2 3 4 2 4 2 7 6 6 3 3 4 12 6 3 5 9
3 5 4 5 4 3 3 4 5 3 0 2 3 5 3 5 1 3 2 2 2 2 3 4 4 2 2 2 3 1 2 4 5 2 7 7 5 2 2 3 8 5 5 4 5 3 5 5 2 8 6 7 7 7
4 5 2 1 2 2 3 0 3 4 4 4 2 4 5 7 4 4 2 2 1 4 5 4 4 5 5 4 3 1 3 5 3 10 9 6 3 3 8 6 2 9 7 7 8 9 11 8 4 6 7 7 6 6
4 4 5 4 2 2 4 0 2 2 1 2 2 1 1 2 3 3 3 5 2 3 3 2 1 4 5 5 5 6 5 6 6 6 8 4 1 2 8 8 6 2 0 5 6 6 5 7 7 7 8 6 6 7
4 3 1 3 4 4 2 3 1 2 6 6 1 2 2 1 3 4 5 3 5 4 1 2 3 3 5 6 7 7 7 7 7 5 6 5 2 3 5 2 2 4 4 4 2 7 7 7 9 6 5 7 7 9
3 5 4 4 3 2 5 5 4 8 8 3 1 6 2 1 2 1 3 3 3 3 2 4 5 6 8 7 6 7 8 7 9 10 7 7 6 4 1 3 4 1 3 4 4 6 7 8 8 9 8 10 10 10
3 5 2 2 2 4 5 7 8 6 5 4 4 4 5 3 2 0 1 2 1 2 8 6 9 9 10 7 5 6 12 10 10 11 14 9 7 6 3 4 5 5 6 7 7 7 9 9 9 8 8 10 9 9
5 4 4 5 4 5 5 4 4 4 4 2 2 4 8 2 1 4 4 4 2 2 9 9 6 5 6 6 8 9 10 10 10 8 9 11 12 14 10 9 6 6 7 7 7 7 8 8 8 9 9 9 10 9
Wind_Direction
347 347 347 346 345 343 343 343 344 344 345 347 349 349 347 346 347 331 25 5 318 294 301 1 326 320 310 254 277 66 229 213 270 258 270 279 279 285 298 291 300 286 280 283 288 287 297 16 289 330 14 347 343 338
341 342 342 342 341 340 341 341 341 341 341 342 345 346 343 341 339 336 266 22 315 262 345 326 302 301 295 337 323 313 323 306 352 290 248 269 282 285 293 276 282 292 292 328 314 330 122 7 345 15 6 330 328 320
334 337 338 338 337 337 338 338 339 338 337 338 340 341 338 331 329 329 326 356 260 267 259 229 244 167 249 247 283 284 253 348 269 338 303 295 294 309 286 284 297 292 42 274 288 292 65 343 356 26 350 329 314 325
328 331 333 333 333 334 334 335 335 336 334 335 336 336 333 324 313 315 319 354 280 304 277 138 95 210 312 249 259 267 279 269 270 273 266 265 278 293 285 312 317 310 339 303 302 280 342 256 33 5 335 321 330 333
321 324 326 328 330 331 332 332 332 332 331 333 334 333 330 317 299 273 275 7 11 312 325 1 132 157 203 208 228 231 243 246 231 225 234 253 266 332 273 269 276 323 329 290 329 56 343 330 347 345 334 332 332 336
315 319 323 325 327 329 329 330 330 329 329 330 331 331 327 310 278 247 204 150 17 330 272 249 90 173 180 196 208 209 219 225 268 259 266 266 281 284 273 263 89 119 194 335 312 351 315 296 306 294 326 316 324 320
309 315 319 323 325 326 327 328 328 326 326 327 327 326 326 333 267 308 9 25 336 289 249 252 196 138 216 181 160 182 192 228 256 251 241 272 202 193 273 272 121 91 352 338 332 304 303 342 317 330 288 301 297 308
301 309 314 318 321 323 325 326 326 325 322 323 322 314 298 301 270 222 131 84 318 265 261 265 149 180 188 205 184 206 209 203 207 259 210 261 212 219 263 41 54 55 323 276 282 322 304 315 325 327 329 320 316 315
290 299 307 312 316 319 323 325 326 322 318 316 311 310 245 226 244 59 346 289 239 292 295 235 252 167 164 240 20 169 269 237 170 234 242 213 245 231 60 71 56 33 352 342 321 306 314 330 316 322 320 319 316 318
286 289 299 307 313 317 322 326 328 320 315 305 278 215 208 47 332 280 175 199 198 187 223 257 8 196 238 167 193 241 168 245 239 171 94 231 245 72 76 55 52 347 326 329 321 325 323 323 328 319 316 318 320 313
285 287 297 303 309 315 321 326 329 320 290 334 332 332 350 329 250 222 247 233 169 220 190 238 230 234 178 251 182 242 343 50 244 134 248 213 169 93 86 84 31 332 331 308 303 305 313 324 321 318 318 314 307 315
283 286 284 294 305 312 316 323 327 323 356 328 303 286 266 239 230 236 212 189 235 221 143 205 184 302 103 293 269 155 238 182 253 87 242 229 90 108 100 22 328 288 308 315 307 308 307 306 311 305 302 310 312 305
281 282 285 290 300 305 309 312 315 303 288 197 227 234 223 208 343 223 192 204 201 169 142 184 167 182 148 238 236 210 216 235 53 226 227 58 91 71 18 316 324 317 303 306 307 306 304 297 297 302 302 300 304 311
275 282 284 287 291 298 301 305 312 314 271 250 240 284 229 193 235 211 271 51 59 98 172 206 119 218 88 193 283 226 214 316 252 244 117 99 108 56 325 317 308 311 311 310 309 310 315 313 303 300 298 303 306 312
273 277 281 279 271 296 301 300 299 268 269 262 251 241 223 284 292 10 348 229 169 266 149 162 127 258 155 191 222 306 215 244 227 30 103 113 83 323 313 309 307 314 327 326 325 320 315 311 306 299 296 299 323 323
281 290 255 156 304 298 293 291 248 240 247 246 240 257 244 259 213 190 202 152 162 194 194 294 183 231 191 230 197 214 249 246 73 50 40 64 50 323 308 329 323 317 320 320 314 315 315 314 299 300 316 330 326 337
257 254 160 287 307 292 278 257 221 222 254 242 229 230 284 312 328 75 313 84 176 239 212 184 202 183 62 227 226 167 249 42 41 30 356 11 326 331 317 297 301 323 311 311 306 298 311 304 308 311 309 323 342 19
246 159 172 359 331 293 201 217 255 249 238 240 251 226 208 283 295 206 207 197 237 226 268 230 43 213 221 216 223 143 150 349 7 293 345 7 321 307 311 305 311 318 314 320 318 319 326 338 329 329 326 329 42 22
287 345 333 346 345 301 288 216 249 267 233 275 268 268 258 270 252 319 320 221 259 327 320 199 240 247 245 243 309 323 233 276 348 8 317 26 2 321 325 324 334 348 344 341 360 13 34 24 14 24 42 50 54 23
261 276 274 277 254 254 253 208 250 261 268 43 276 264 248 259 239 217 221 217 204 205 222 226 254 277 254 55 64 327 325 328 306 289 29 92 340 355 12 355 4 335 5 23 56 27 45 44 27 23 37 46 45 350
211 147 176 204 203 228 273 280 238 235 310 291 291 256 253 210 221 222 231 220 216 228 230 227 239 91 48 41 338 309 302 337 311 285 324 310 340 14 325 315 60 71 53 36 43 68 55 51 60 23 24 352 285 271
119 64 247 211 243 229 252 251 269 290 261 242 239 224 259 229 217 213 214 221 224 224 235 253 228 128 151 205 265 249 224 236 238 305 225 182 254 351 327 20 28 61 60 58 49 57 64 55 21 56 359 297 213 62
189 198 231 256 209 211 262 207 238 222 251 271 250 248 220 215 224 149 216 223 226 214 235 214 139 79 292 89 234 202 208 214 34 259 233 234 247 155 239 43 30 34 91 67 50 52 50 284 275 294 13 24 27 9
121 246 257 251 232 230 219 217 233 235 225 235 244 254 234 198 175 216 237 224 196 205 183 128 179 203 197 195 230 158 186 215 209 177 99 148 107 7 336 318 130 127 50 50 58 286 205 91 288 44 24 358 20 13
172 236 222 237 224 248 225 230 215 214 241 222 231 242 243 152 197 233 250 184 182 160 150 171 210 208 217 96 160 129 241 10 76 86 218 150 139 27 331 359 17 344 140 140 253 344 55 35 344 19 73 42 3 348
228 205 230 214 232 247 234 220 207 233 254 235 237 245 185 244 235 233 88 141 159 167 177 209 183 181 183 123 169 177 198 210 208 248 186 150 127 119 316 316 253 255 28 64 59 41 7 47 17 312 3 108 109 340
249 203 224 206 234 236 291 339 309 242 210 322 324 302 248 226 163 71 357 49 93 187 192 83 84 157 166 178 113 113 318 307 271 235 146 170 143 148 182 276 283 30 38 49 78 297 351 90 2 287 349 348 16 15
267 288 233 218 289 299 256 167 276 310 31 16 313 299 6 351 25 353 322 24 296 0 49 81 126 140 164 139 112 165 237 221 228 84 93 73 46 267 256 239 95 57 46 27 355 5 357 352 348 2 3 353 3 2
247 216 237 251 137 4 271 135 306 32 305 273 257 202 139 325 337 300 304 305 14 67 66 71 95 114 117 83 56 33 351 11 85 120 127 106 186 305 0 23 301 173 248 135 79 55 37 18 15 1 343 357 360 29
242 185 227 266 240 186 246 303 138 250 244 268 107 113 113 283 307 322 322 24 43 38 335 99 119 155 101 118 91 62 44 52 46 18 98 120 151 221 270 223 26 26 329 339 108 150 195 222 212 234 9 7 21 353
285 180 217 220 239 197 173 163 206 250 261 228 154 105 89 79 290 245 343 2 340 4 66 74 74 77 53 48 91 86 87 72 70 54 60 110 113 104 86 239 231 221 17 8 7 42 3 341 23 16 22 12 21 16
236 226 217 270 265 210 198 199 206 213 237 247 147 125 127 69 350 25 291 275 23 92 96 54 54 81 91 66 58 64 52 57 47 33 23 23 27 8 50 39 52 28 27 45 59 44 25 16 29 18 16 38 27 23
218 244 235 259 242 220 197 204 201 221 215 215 231 163 130 126 143 215 173 185 205 146 103 98 89 56 36 19 78 85 79 81 80 60 58 46 31 13 17 24 39 47 45 39 41 49 47 36 32 22 23 21 17 11